User: anonymous   Login
Location: Unspecified
(0.0000°N, 0.0000°E)
Time: 01:17:16
(UTC+00:00)
Language:

A-11 Canister half - Orbit

View from above orbital plane
View from above orbital plane
View from above satellite
View from above satellite

Ground track
Ground track

The orbit data is extracted from the following two-line orbital elements,

1 00051U 60009C   15115.14133122 -.00000108  00000-0 -22555-3 0  9994
2 00051 047.2143 044.5661 0106861 333.0235 026.5025 12.18254987434857
Epoch (UTC): 25 April 2015 03:23:31
Eccentricity: 0.0106861
inclination: 47.2143°
perigee height: 1515 km
apogee height: 1685 km
right ascension of ascending node: 44.5661°
argument of perigee: 333.0235°
revolutions per day: 12.18254987
mean anomaly at epoch: 26.5025°
orbit number at epoch: 43485

The dashed part of the orbit path shows where the satellite is in the earth's shadow,  

DLR